Regional Weather Roundup
Issued by NWS Upton, NY

Current Version | Previous Version | Text Only | Print | Product List | Glossary On
Versions: 1 2 3 4 5 6 7 8 9 10 11 12 13 14 15 16 17 18 19 20 21 22 23 24 25 26 27 28 29 30
000 ASUS41 KOKX 271504 RWROKX REGIONAL WEATHER ROUNDUP NATIONAL WEATHER SERVICE NEW YORK NY 1100 AM EDT SAT AUG 27 2016 NOTE: "FAIR" INDICATES FEW OR NO CLOUDS BELOW 12,000 FEET WITH NO SIGNIFICANT WEATHER AND/OR OBSTRUCTIONS TO VISIBILITY. NYZ071-072-176-178-NJZ106-104-271600- NEW YORK CITY METRO AREA CITY SKY/WX TMP DP RH WIND PRES REMARKS Central Park N/A 82 57 42 MISG N/A LaGuardia APRT MOSUNNY 83 62 49 NE8 30.19S Kennedy INTL MOSUNNY 85 59 41 NE8 30.19S Newark/Liberty MOSUNNY 85 60 42 NE5 30.19S Bronx Bot Gard N/A 82 57 42 E13 30.20F Wall St Helipt SUNNY 86 59 39 NE8 30.19S Teterboro SUNNY 85 60 42 VRB5 30.18S $$ NYZ177-179-078>081-271600- LONG ISLAND NEW YORK CITY SKY/WX TMP DP RH WIND PRES REMARKS Farmingdale SUNNY 84 60 44 NE8 30.19S MacArthur/ISP MOSUNNY 86 59 39 NE10 30.18S Shirley SUNNY 84 60 44 VRB6 30.19S Riverhead NOT AVBL Westhampton SUNNY 83 61 47 NE7 30.20S Southampton N/A 84 63 48 E7 30.15S Bridgehampton N/A 79 68 69 CALM 30.18S East Hampton FAIR 80 61 52 NE8 30.19S Montauk N/A 78 63 59 VRB3 30.20R $$ NYZ052-065-067-271600- HUDSON VALLEY CITY SKY/WX TMP DP RH WIND PRES REMARKS White Plains SUNNY 82 60 47 E6 30.20S Newburgh SUNNY 81 66 61 CALM 30.23S Montgomery SUNNY 81 66 60 NE5 30.21F Poughkeepsie SUNNY 79 63 57 VRB3 30.20S Albany MOSUNNY 76 64 66 S3 30.21S $$ NJZ001-105-106-008-010-013-015-019>022-104-271600- NEW JERSEY CITY SKY/WX TMP DP RH WIND PRES REMARKS Newark/Liberty MOSUNNY 85 60 42 NE5 30.19S Teterboro SUNNY 85 60 42 VRB5 30.18S Caldwell SUNNY 83 62 49 NE7 30.20S Morristown MOSUNNY 81 64 57 NE5 30.20S Somerville SUNNY 83 61 47 E6 30.18S Linden FAIR 85 56 38 E8 30.21R Sussex SUNNY 80 66 62 VRB5 30.22F Abdover N/A 79 65 62 VRB5 30.22F Trenton SUNNY 84 63 49 E8 30.19S Millville SUNNY 84 64 50 NE10 30.18S Atlantic City SUNNY 86 63 45 NE12 30.17S Wrightstown SUNNY 83 65 54 NE7 30.16S Toms River SUNNY 85 60 42 E7 30.19S Belmar SUNNY 83 59 44 NE12G18 30.20S $$ PAZ047>061-062-071-271600- EASTERN PENNSYLVANIA CITY SKY/WX TMP DP RH WIND PRES REMARKS Philadelphia MOSUNNY 85 60 42 E10 30.18F Allentown SUNNY 83 63 50 NE6 30.21F Scranton SUNNY 79 64 60 N3 30.23F $$ CTZ002-004>006-009-010-012-RIZ004-006-007-MAZ004-011-015-271600- SOUTHERN NEW ENGLAND IN CT CITY SKY/WX TMP DP RH WIND PRES REMARKS Bradley INTL MOSUNNY 82 63 52 VRB3 30.20F Hartford SUNNY 83 64 52 CALM 30.19F Danbury SUNNY 79 61 53 E5 30.22S Wtrbury/Oxford SUNNY 79 61 53 N3 30.25R Bridgeport SUNNY 82 62 50 E7 30.19S Meriden SUNNY 83 62 49 VRB3 30.20S New Haven SUNNY 84 60 44 N7 30.19S Chester FAIR 82 61 47 N3 30.21S Groton SUNNY 85 62 46 NE6 30.18S Wilimantic SUNNY 83 63 50 N6 30.20S IN RI CITY SKY/WX TMP DP RH WIND PRES REMARKS Providence MOSUNNY 85 58 39 NE6 30.19S Block Island SUNNY 79 63 57 NE7 30.20R Westerly SUNNY 84 56 38 NE6 30.19S IN MA CITY SKY/WX TMP DP RH WIND PRES REMARKS Boston MOSUNNY 82 59 45 E9 30.18S Worcester SUNNY 79 58 48 VRB7 30.23S Westfield SUNNY 82 63 52 NE6 30.20S Provincetown SUNNY 75 65 70 N6 30.20R Nantucket SUNNY 79 62 56 NE15 30.17R $$ ANZ330-335-338-340-345-350-353-355-271600- COASTAL MARINE OBSERVATIONS STATION/POSITION TIME SKY/WX TEMP WIND PRES VSBY WAVE AIR SEA DIR/SP/G HT/PER (UTC) (F) (DEG/KT/KT) (MB) (MI) (FT/S) NY HARB ENTRANCE 1350 75 74 30/ 8/ 10 1021.7 2/ 8 20S FIRE ISLAND 1350 74 74 40/ 12/ 14 1021.3 2/ 8 GREAT SOUTH BAY 1400 79 79 60/ 8/ 10 N/A 23 SSW MONTAUK P 1350 74 75 20/ 10/ 12 1022.1 2/ 7 15 E BARNEGAT LI 1400 75 N/A 3/ 4 HUDSON CANYON 1350 79 78 1020.3 3/ 5 KINGS POINT 1400 78 76 1022.2 EXECUTION ROCKS 1400 76 90/ 6/ 6 N/A CENTRAL LI SOUND 1430 76 75 60/ 4/ 4 N/A 1 EASTERN LI SOUND 1400 78 70 360/ 4/ 4 N/A ROBBINS REEF 1400 79 30/ 8/ 10 1021.5 $$ >>>>>>>>>>>>>>>>>>>>>>>>>>>> KEY <<<<<<<<<<<<<<<<<<<<<<<<<<< > < > SKY/WX - Sky Condition/Present Weather < > TMP - Temperature in Fahrenheit < > DP - Dew Point in Fahrenheit < > RH - Relative Humidity in Percent < > WIND - Direction (from) and Speed in MPH < > PRES - Mean Sea Level Pressure (inches of Hg) < > WCI - Wind Chill Index < > VSB - VISIBILITY IN MILES < > HX - HEAT INDEX < > TC - TEMPERATURE IN CELSIUS < > VRB - VARIABLE WIND DIRECTION < > < >>>>>>>>>>>>>>>>>>>>>>>>>>>> KEY <<<<<<<<<<<<<<<<<<<<<<<<<<<

USA.gov is the U.S. government's official web portal to all federal, state and local government web resources and services.